Weather History for K05U - December, 2012

Change the Weather History Date:

Wednesday, December 26, 2012

  Actual Average Record
Temperature  
Mean Temperature 26 °F -  
Max Temperature 35 °F - - ()
Min Temperature 17 °F - - ()
Degree Days  
Heating Degree Days 39    
Moisture  
Dew Point 19 °F    
Average Humidity 79    
Maximum Humidity 93    
Minimum Humidity 56    
Precipitation  
Precipitation 0.01 in - - ()
Sea Level Pressure  
Sea Level Pressure 29.74 in    
Wind  
Wind Speed 4 mph (WSW)    
Max Wind Speed 15 mph    
Max Gust Speed 24 mph    
Visibility 7 miles    
Events      
T = Trace of Precipitation, MM = Missing Value Source: NWS Daily Summary

Daily Weather History Graph

Daily Weather History Graph

Search for Another Location

Airport or City:

Trip Planner

Search our weather history database for the weather conditions in past years. The results will help you decide how hot, cold, wet, or windy it might be!

Date:

Astronomy

Dec. 26, 2012 Rise Set
Actual Time 7:03 AM PST 4:26 PM PST
Civil Twilight 6:33 AM PST 4:56 PM PST
Nautical Twilight 5:59 AM PST 5:30 PM PST
Astronomical Twilight 5:26 AM PST 6:03 PM PST
Moon 3:23 PM PST (12/26) 5:30 AM PST (12/26)
Length of Visible Light 10h 23m
Length of Day
9h 23m
Waxing Gibbous, 98% of the Moon is Illuminated
Dec 26
Waxing Gibbous
Dec 28
Full
Jan 4
Last Quarter
Jan 11
New
Jan 18
First Quarter

Hourly Weather History & Observations

Time (PST) Temp. Windchill Dew Point Humidity Pressure Visibility Wind Dir Wind Speed Gust Speed Precip Events Conditions
12:00 AM 17.6 °F - 12.2 °F 79% 29.77 in 10.0 mi Calm Calm - N/A   Overcast
12:20 AM 17.6 °F 12.3 °F 12.2 °F 79% 29.76 in 10.0 mi North 3.5 mph - N/A   Overcast
12:40 AM 19.4 °F 14.3 °F 14.0 °F 80% 29.75 in 10.0 mi NNW 3.5 mph - N/A   Overcast
1:20 AM 23.0 °F - 14.0 °F 68% 29.74 in 10.0 mi Calm Calm - N/A   Overcast
1:40 AM 24.8 °F 16.1 °F 15.8 °F 69% 29.74 in 7.0 mi WSW 8.1 mph - N/A   Overcast
2:00 AM 23.0 °F - 17.6 °F 80% 29.74 in 3.0 mi Calm Calm - N/A   Overcast
2:20 AM 23.0 °F 18.4 °F 19.4 °F 86% 29.74 in 1.2 mi NW 3.5 mph - N/A   Overcast
2:40 AM 23.0 °F - 19.4 °F 86% 29.75 in 1.2 mi Calm Calm - N/A   Overcast
3:00 AM 23.0 °F - 19.4 °F 86% 29.74 in 1.8 mi Calm Calm - N/A   Overcast
3:20 AM 23.0 °F 15.8 °F 19.4 °F 86% 29.72 in 1.5 mi SE 5.8 mph - N/A   Overcast
3:40 AM 23.0 °F 15.8 °F 19.4 °F 86% 29.72 in 1.5 mi SSE 5.8 mph - N/A   Overcast
4:20 AM 23.0 °F 17.0 °F 17.6 °F 80% 29.71 in 3.0 mi SSE 4.6 mph - N/A   Mostly Cloudy
4:40 AM 21.2 °F - 17.6 °F 86% 29.70 in 8.0 mi Calm Calm - N/A   Overcast
5:00 AM 23.0 °F 18.4 °F 17.6 °F 80% 29.70 in 10.0 mi SW 3.5 mph - N/A   Overcast
5:20 AM 21.2 °F 16.4 °F 17.6 °F 86% 29.70 in 10.0 mi WNW 3.5 mph - N/A   Overcast
5:40 AM 21.2 °F - 17.6 °F 86% 29.69 in 10.0 mi Calm Calm - N/A   Overcast
6:00 AM 19.4 °F - 17.6 °F 93% 29.69 in 10.0 mi Calm Calm - N/A   Mostly Cloudy
6:20 AM 19.4 °F - 15.8 °F 86% 29.69 in 10.0 mi Calm Calm - N/A   Overcast
6:40 AM 19.4 °F - 17.6 °F 93% 29.70 in 10.0 mi Calm Calm - N/A   Overcast
7:00 AM 21.2 °F - 17.6 °F 86% 29.70 in 10.0 mi Calm Calm - N/A   Overcast
7:20 AM 19.4 °F - 15.8 °F 86% 29.70 in 10.0 mi Calm Calm - N/A   Overcast
7:40 AM 19.4 °F - 15.8 °F 86% 29.70 in 10.0 mi Calm Calm - N/A   Overcast
8:00 AM 17.6 °F 10.7 °F 14.0 °F 86% 29.71 in 10.0 mi WSW 4.6 mph - N/A   Overcast
8:20 AM 19.4 °F - 15.8 °F 86% 29.72 in 2.0 mi Calm Calm - N/A   Mostly Cloudy
8:40 AM 21.2 °F - 17.6 °F 86% 29.73 in 2.0 mi Calm Calm - N/A   Mostly Cloudy
9:00 AM 23.0 °F - 19.4 °F 86% 29.73 in 3.0 mi Calm Calm - N/A   Mostly Cloudy
9:20 AM 24.8 °F - 19.4 °F 80% 29.74 in 6.0 mi Calm Calm - N/A   Overcast
9:40 AM 24.8 °F - 19.4 °F 80% 29.74 in 10.0 mi Calm Calm - N/A   Overcast
10:00 AM 24.8 °F - 19.4 °F 80% 29.74 in 4.0 mi Calm Calm - N/A   Scattered Clouds
10:20 AM 26.6 °F 21.2 °F 17.6 °F 69% 29.74 in 9.0 mi SW 4.6 mph - N/A   Mostly Cloudy
10:40 AM 26.6 °F 20.0 °F 17.6 °F 69% 29.73 in 7.0 mi SW 5.8 mph - N/A   Mostly Cloudy
11:00 AM 28.4 °F 22.2 °F 19.4 °F 69% 29.73 in 9.0 mi WSW 5.8 mph - N/A   Partly Cloudy
11:20 AM 28.4 °F 19.7 °F 19.4 °F 69% 29.72 in 4.0 mi SW 9.2 mph - N/A   Scattered Clouds
11:40 AM 28.4 °F 19.7 °F 21.2 °F 74% 29.71 in 2.5 mi SW 9.2 mph - N/A   Scattered Clouds
12:00 PM 32.0 °F 23.0 °F 21.2 °F 64% 29.71 in 10.0 mi WSW 11.5 mph - 0.01 in   Scattered Clouds
12:20 PM 32.0 °F 24.2 °F 21.2 °F 64% 29.70 in 10.0 mi SW 9.2 mph - N/A   Scattered Clouds
12:40 PM 32.0 °F 22.5 °F 19.4 °F 60% 29.70 in 10.0 mi WSW 12.7 mph 17.3 mph N/A   Mostly Cloudy
1:00 PM 32.0 °F 22.1 °F 21.2 °F 64% 29.69 in 10.0 mi WSW 13.8 mph 24.2 mph N/A   Overcast
1:20 PM 35.6 °F 26.6 °F 21.2 °F 56% 29.69 in 10.0 mi WSW 13.8 mph 18.4 mph N/A   Overcast
1:40 PM 32.0 °F 21.6 °F 21.2 °F 64% 29.70 in 10.0 mi WSW 15.0 mph 20.7 mph N/A   Mostly Cloudy
2:00 PM 32.0 °F 21.6 °F 23.0 °F 69% 29.70 in 8.0 mi West 15.0 mph 18.4 mph N/A   Mostly Cloudy
2:20 PM 32.0 °F 22.5 °F 23.0 °F 69% 29.70 in 10.0 mi West 12.7 mph - N/A   Overcast
2:40 PM 32.0 °F 23.0 °F 23.0 °F 69% 29.71 in 10.0 mi West 11.5 mph 19.6 mph N/A   Overcast
3:00 PM 32.0 °F 24.8 °F 21.2 °F 64% 29.72 in 10.0 mi WNW 8.1 mph - N/A   Mostly Cloudy
3:20 PM 32.0 °F 23.6 °F 21.2 °F 64% 29.73 in 10.0 mi West 10.4 mph - N/A   Overcast
3:40 PM 30.2 °F 20.2 °F 23.0 °F 75% 29.73 in 10.0 mi West 12.7 mph - N/A   Mostly Cloudy
4:00 PM 28.4 °F 21.2 °F 23.0 °F 80% 29.74 in 6.0 mi West 6.9 mph - N/A   Mostly Cloudy
4:20 PM 26.6 °F 19.1 °F 19.4 °F 74% 29.74 in 10.0 mi West 6.9 mph - N/A   Scattered Clouds
4:40 PM 24.8 °F 16.9 °F 19.4 °F 80% 29.74 in 10.0 mi West 6.9 mph - N/A   Overcast
5:00 PM 24.8 °F - 19.4 °F 80% 29.75 in 10.0 mi Calm Calm - N/A   Overcast
5:20 PM 24.8 °F - 19.4 °F 80% 29.75 in 10.0 mi Calm Calm - N/A   Overcast
5:40 PM 24.8 °F 20.5 °F 21.2 °F 86% 29.75 in 10.0 mi NE 3.5 mph - N/A   Overcast
6:00 PM 26.6 °F 21.2 °F 19.4 °F 74% 29.76 in 10.0 mi SSE 4.6 mph - N/A   Overcast
6:20 PM 26.6 °F 22.6 °F 19.4 °F 74% 29.77 in 10.0 mi South 3.5 mph - N/A   Overcast
6:40 PM 26.6 °F 19.1 °F 21.2 °F 80% 29.77 in 5.0 mi SW 6.9 mph - N/A   Overcast
7:00 PM 26.6 °F 18.2 °F 21.2 °F 80% 29.77 in 3.0 mi SW 8.1 mph - N/A   Overcast
7:20 PM 24.8 °F 16.1 °F 21.2 °F 86% 29.78 in 8.0 mi SW 8.1 mph - N/A   Overcast
7:40 PM 24.8 °F 14.0 °F 21.2 °F 86% 29.78 in 10.0 mi WSW 11.5 mph - N/A   Overcast
8:00 PM 24.8 °F 19.1 °F 21.2 °F 86% 29.78 in 5.0 mi SW 4.6 mph - N/A   Mostly Cloudy
8:20 PM 24.8 °F - 23.0 °F 93% 29.78 in 10.0 mi Calm Calm - N/A   Overcast
8:40 PM 24.8 °F - 23.0 °F 93% 29.78 in 5.0 mi Calm Calm - N/A   Overcast
9:00 PM 24.8 °F - 23.0 °F 93% 29.79 in 3.0 mi Calm Calm - N/A   Overcast
9:20 PM 24.8 °F - 21.2 °F 86% 29.79 in 5.0 mi Calm Calm - N/A   Overcast
9:40 PM 24.8 °F 20.5 °F 21.2 °F 86% 29.80 in 3.0 mi WSW 3.5 mph - N/A   Overcast
10:00 PM 24.8 °F - 21.2 °F 86% 29.80 in 3.0 mi Calm Calm - N/A   Overcast
10:20 PM 24.8 °F - 21.2 °F 86% 29.81 in 5.0 mi Calm Calm - N/A   Overcast
10:40 PM 24.8 °F - 21.2 °F 86% 29.81 in 8.0 mi Calm Calm - N/A   Overcast
11:00 PM 24.8 °F 16.1 °F 21.2 °F 86% 29.82 in 5.0 mi West 8.1 mph - N/A   Overcast
11:20 PM 24.8 °F 16.9 °F 21.2 °F 86% 29.82 in 7.0 mi West 6.9 mph - N/A   Overcast
11:40 PM 24.8 °F 14.6 °F 21.2 °F 86% 29.82 in 10.0 mi West 10.4 mph - N/A   Overcast